Skip Page Navigation
NASA JPL Caltech
NASA Logo - Jet Propulsion Laboratory + View the NASA Portal
+ Center for Near-Earth Object Studies
JPL Home Earth Solar System Stars & Galaxies Technology
JPL Solar System Dynamics
BODIES ORBITS EPHEMERIDES TOOLS PHYSICAL DATA DISCOVERY FAQ SITE MAP
IMPORTANT: The SSD Announcement email list is now available. Major changes are coming in the near future, including possible hostname and/or URL changes. To be notified of such changes, subscribe to this email list.

Please visit this page for more details.


JPL Small-Body Database Browser
Search: [ help ]  
91966 (1999 VP91)
Classification: Main-belt Asteroid          SPK-ID: 2091966
Ephemeris | Orbit Diagram | Orbital Elements | Mission Design | Physical Parameters | Discovery Circumstances | Close-Approach Data ]

[ show orbit diagram ]
Orbital Elements at Epoch 2459000.5 (2020-May-31.0) TDB
Reference: JPL 19 (heliocentric ecliptic J2000)
 Element Value Uncertainty (1-sigma)   Units 
e .1494718133255598 3.9775e-08  
a 3.178317993526411 2.7771e-08 au
q 2.703249039708764 1.2802e-07 au
i 7.012731531537029 4.4092e-06 deg
node 200.5291132511661 3.8372e-05 deg
peri 221.2771340901411 4.1356e-05 deg
M 210.7943444369842 1.7964e-05 deg
tp 2459858.282597545233
(2022-Oct-05.78259755)
0.00010975 TDB
period 2069.638271760173
5.67
2.7126e-05
7.427e-08
d
yr
n .1739434397363697 2.2798e-09 deg/d
Q 3.653386947344059 3.1922e-08 au
  Orbit Determination Parameters
   # obs. used (total)      512  
   data-arc span      7988 days (21.87 yr)  
   first obs. used      1997-06-27  
   last obs. used      2019-05-11  
   planetary ephem.      DE431  
   SB-pert. ephem.      SB431-N16  
   condition code      0  
   norm. resid. RMS      .56  
   source      ORB  
   producer      Otto Matic  
   solution date      2019-May-30 06:05:06  

Additional Information
 Earth MOID = 1.72068 au 
 Jupiter MOID = 1.7254 au 
 T_jup = 3.171 
[ show covariance matrix ]

Ephemeris | Orbit Diagram | Orbital Elements | Mission Design | Physical Parameters | Discovery Circumstances | Close-Approach Data ]

Physical Parameter Table
Parameter Symbol Value Units Sigma Reference Notes
absolute magnitude H 14.9   n/a MPO436415  
diameter diameter 7.629 km 0.303 urn:nasa:pds:neowise_diameters_albedos::2.0[mainbelt] (http://adsabs.harvard.edu/abs/2011ApJ...741...68M)  
geometric albedo albedo 0.040   0.006 urn:nasa:pds:neowise_diameters_albedos::2.0[mainbelt] (http://adsabs.harvard.edu/abs/2011ApJ...741...68M)  

91966 (1999 VP91)          Discovered 1999-Nov-05 by LINEAR at Socorro
Reference: 20041028/Numbers.arcLast Updated: 2004-10-29

[ show close-approach data ]
Alternate Designations
 1999 VP91 = 2001 BW75 
Ephemeris | Orbit Diagram | Orbital Elements | Mission Design | Physical Parameters | Discovery Circumstances | Close-Approach Data ]
ABOUT SSD CREDITS/AWARDS PRIVACY/COPYRIGHT GLOSSARY LINKS
FirstGov 2020-Feb-18 01:53 UT
(server date/time)  
NASA Home Page
Site Manager:   Ryan S. Park
Webmaster  Alan B. Chamberlin